Theta_e
308 309 310 311 312 312 312 312 312 311 311 310 309 309 308 307 307 307 307 307 307 307 307 308 308 309 309 309 309 309 309 307 308 308 309 315 320 321 323 324 321 319 317 314 323 332 333 337 338 339 342 344 345 344 346 347 352 355 356 356 354 354 353 353 357 355 355 358 358 359 358 357 357 358 357 357 358 358 358 357 355 355 354 352 352 352 351 350
307 308 309 310 311 312 313 312 311 311 311 310 310 309 309 308 307 307 307 307 308 308 308 307 308 308 308 308 308 309 309 307 309 312 314 318 319 319 320 322 322 320 317 314 326 336 335 338 340 341 344 344 345 343 345 346 349 351 353 357 355 354 353 355 357 356 356 357 356 358 358 358 357 357 358 357 358 358 357 356 354 355 354 352 352 353 351 350
306 306 307 308 310 311 312 312 312 311 311 310 310 309 309 309 308 308 307 308 308 308 307 308 308 308 308 308 309 310 309 312 319 322 325 325 320 317 316 320 321 320 317 315 327 337 335 340 342 342 344 344 344 343 343 344 348 348 348 356 358 355 353 355 356 355 355 355 356 357 357 357 356 356 357 357 357 357 356 355 355 356 355 353 353 353 352 351
305 306 306 307 308 310 312 313 312 311 311 310 310 309 309 308 308 308 308 308 308 308 308 308 308 308 308 309 309 310 311 319 328 330 330 328 323 317 314 317 321 320 316 317 329 337 337 341 343 342 342 342 342 343 342 343 346 349 348 352 357 356 354 356 355 354 354 354 358 358 357 357 356 355 356 356 357 357 358 358 355 356 355 354 353 353 352 351
305 305 306 306 307 308 310 312 312 311 310 310 309 309 309 308 308 309 308 308 308 308 308 308 308 308 308 309 310 310 316 326 330 331 329 325 321 319 316 317 320 321 315 320 330 334 338 341 342 341 341 340 340 340 341 343 344 347 348 349 350 351 353 355 354 354 355 355 357 358 355 356 355 356 356 356 358 356 356 356 356 355 354 353 353 353 352 351
305 305 305 306 306 307 309 311 312 311 310 310 309 309 309 308 308 308 309 308 309 308 309 308 308 308 308 310 310 310 320 328 326 327 326 322 321 320 319 316 320 321 315 322 330 332 338 340 340 341 340 339 338 339 340 342 342 342 345 346 348 351 353 354 353 353 355 356 358 358 356 355 355 357 356 355 358 356 354 354 355 354 353 353 354 353 352 353
305 305 305 306 306 306 307 310 312 312 310 310 309 308 308 308 309 308 309 309 308 309 308 308 308 308 309 308 310 316 324 328 323 325 322 319 321 321 322 318 319 321 316 323 329 332 338 339 340 340 340 338 336 338 338 341 340 340 340 341 347 350 353 355 353 352 353 355 356 356 355 354 356 357 356 353 356 356 354 354 353 353 352 353 354 354 353 353
305 305 305 306 306 306 307 309 311 311 311 310 309 309 308 309 309 309 309 309 308 309 308 309 308 309 309 308 315 324 330 327 323 323 321 319 319 320 323 320 321 320 317 325 330 333 338 337 339 340 339 338 335 337 337 338 339 339 338 337 346 351 352 352 353 353 352 353 353 353 354 356 355 356 356 355 356 355 355 355 353 353 352 352 353 354 354 353
304 305 305 306 306 306 306 308 310 310 310 310 309 309 308 308 309 309 309 308 308 309 308 309 308 309 309 309 316 325 327 325 322 322 322 323 322 320 322 322 322 320 319 326 330 334 337 336 337 338 338 337 334 335 335 335 337 339 339 337 342 350 352 352 352 353 352 352 353 354 355 356 354 355 355 356 357 355 355 355 352 352 352 352 352 352 354 353
305 305 305 305 306 306 306 308 309 310 310 309 309 309 309 309 309 308 308 308 308 308 308 309 309 311 311 313 320 325 323 323 322 322 323 326 325 318 320 324 323 320 321 325 329 334 336 335 336 337 336 335 333 333 333 333 334 336 339 339 338 341 347 350 352 354 352 351 352 353 356 356 355 356 356 356 358 355 354 354 352 350 351 352 352 352 353 354
305 305 305 305 306 306 306 308 309 310 310 309 309 309 308 308 308 307 308 308 308 309 310 311 312 312 313 317 325 327 323 322 321 322 325 327 325 318 321 326 324 321 322 324 327 332 336 334 334 335 335 334 331 331 331 331 332 333 336 338 338 337 338 343 346 353 354 352 351 349 354 357 354 354 355 356 357 354 353 354 352 352 351 352 352 352 353 352
304 305 305 305 305 306 306 308 310 310 309 309 309 308 309 308 308 308 308 309 310 312 313 313 314 313 318 323 326 325 322 321 321 320 325 329 326 323 326 326 324 323 323 324 327 330 334 334 333 334 335 333 330 329 329 329 330 330 333 334 334 335 335 337 338 346 353 352 350 349 349 354 355 353 354 357 356 354 352 352 352 352 352 351 352 352 352 352
304 304 305 305 305 305 307 309 309 310 309 310 309 309 308 308 308 308 309 311 312 314 313 314 313 314 323 329 327 322 319 319 320 317 321 329 328 325 328 329 325 325 325 327 329 332 333 333 333 334 334 332 330 328 326 327 329 328 330 331 331 331 332 336 337 342 347 348 350 349 346 349 353 353 355 356 356 356 354 352 352 352 351 350 352 352 352 352
304 304 304 305 305 305 307 309 309 310 310 310 309 308 309 309 308 308 310 313 314 315 314 314 313 317 327 330 323 319 316 318 321 318 319 326 329 325 327 332 329 327 329 332 333 333 332 332 332 332 332 331 330 329 326 327 328 328 329 328 329 327 328 335 337 340 344 347 351 347 343 347 350 351 354 356 355 354 353 352 352 352 351 350 352 351 352 352
303 304 304 304 305 305 307 309 310 310 310 310 309 309 310 309 308 309 310 313 314 314 315 318 316 321 332 332 321 319 317 319 321 320 319 320 326 327 327 330 332 330 331 332 334 333 331 330 329 330 330 330 329 329 328 327 327 329 326 324 328 325 327 335 334 338 341 345 351 347 341 346 349 350 354 355 355 355 353 353 353 353 351 351 352 351 351 352
304 304 304 304 305 305 306 310 310 310 310 311 310 311 312 310 309 310 310 312 315 314 316 324 326 326 332 329 320 320 319 319 319 318 317 317 322 328 328 329 331 331 330 332 333 333 331 330 328 329 329 329 328 328 328 325 324 328 325 321 325 325 326 332 332 336 340 344 350 346 344 347 349 349 353 355 355 355 354 354 353 353 353 352 352 352 351 352
304 304 304 304 304 304 306 309 310 311 311 311 311 313 315 312 309 310 312 313 314 314 315 322 328 329 329 324 318 319 319 317 317 317 318 317 319 326 330 329 329 330 330 332 332 332 332 329 329 327 329 328 328 329 324 319 319 323 326 323 325 327 327 328 332 335 338 344 348 347 347 347 349 351 353 355 354 354 355 355 354 354 354 354 353 351 351 352
305 306 305 304 304 304 305 308 311 310 311 312 313 314 316 314 312 312 313 315 316 321 323 321 324 326 324 321 319 318 318 316 317 318 317 318 317 321 329 329 329 330 330 331 331 331 330 330 329 328 329 328 329 328 322 318 319 320 322 322 324 326 328 328 330 335 339 343 345 347 347 348 349 352 353 353 353 353 355 355 354 355 356 356 355 353 352 352
308 308 307 306 305 304 305 308 310 311 312 313 314 316 318 318 319 317 316 321 325 329 329 324 324 324 319 319 319 317 317 316 317 318 317 319 317 320 327 328 329 330 330 329 329 329 329 330 329 328 328 327 328 328 325 323 322 323 324 323 323 323 326 330 332 334 340 342 343 346 346 348 349 351 352 352 352 352 354 357 354 355 358 357 355 353 352 352
309 309 308 307 305 304 305 307 310 311 313 315 315 317 319 319 321 321 318 321 326 325 321 318 320 319 316 317 318 316 317 316 317 318 319 319 318 321 326 328 329 329 329 328 328 329 329 328 328 327 327 327 327 327 327 327 326 325 324 323 324 323 324 330 334 333 337 340 340 344 345 349 349 348 351 351 353 351 352 356 354 356 359 355 354 353 353 353
308 308 308 307 306 305 305 308 310 312 314 316 316 318 317 316 316 318 316 316 319 318 316 315 316 315 316 316 316 316 316 317 318 319 320 319 320 324 326 327 328 327 327 328 328 328 328 326 326 327 326 325 326 327 326 326 326 326 324 322 322 322 325 331 334 334 335 337 337 343 345 347 349 348 350 350 351 350 351 355 355 358 359 354 352 353 353 353
307 307 307 307 306 304 305 308 311 313 314 316 318 317 316 315 315 315 315 315 316 316 315 315 315 315 315 315 315 315 315 317 319 319 320 319 323 326 326 325 324 326 326 327 328 327 326 325 326 326 326 325 325 326 327 325 327 326 325 322 319 323 326 328 332 334 334 335 335 341 345 345 347 348 349 350 351 349 351 356 357 360 359 354 353 352 351 352
306 306 306 306 306 305 308 311 313 315 315 317 318 316 315 315 315 315 315 316 317 317 316 315 316 316 315 315 315 314 316 317 319 320 320 320 325 326 325 324 323 325 326 325 327 324 323 324 326 327 325 325 325 325 326 326 326 325 324 320 318 323 325 323 328 332 333 334 334 339 342 344 347 346 347 350 350 349 350 355 358 359 356 354 354 353 351 351
306 307 307 308 307 307 311 314 315 316 316 317 317 315 315 315 314 315 315 316 318 318 317 316 315 316 316 315 314 314 315 317 319 320 319 320 324 325 326 326 324 325 325 326 326 325 324 325 327 327 325 326 325 325 325 325 325 324 325 321 320 323 324 323 328 331 332 331 334 336 333 336 345 347 348 349 348 349 349 352 358 358 354 352 354 353 351 351
308 308 309 310 310 310 314 317 317 317 316 317 317 315 315 315 315 315 316 318 319 318 317 316 315 316 315 314 314 315 316 316 317 318 318 319 321 322 324 326 327 327 325 325 326 325 325 327 327 326 326 326 325 326 327 324 323 323 325 325 323 325 325 325 327 327 325 325 331 331 324 326 338 345 346 347 346 348 349 349 356 359 355 352 354 355 352 350
309 310 311 311 312 312 314 317 318 316 317 317 316 316 315 315 315 314 316 318 318 318 316 315 314 314 315 314 314 315 315 316 317 317 317 317 318 320 321 324 327 327 326 326 325 325 325 326 327 326 326 326 326 325 327 326 322 320 324 326 326 326 324 324 324 323 318 319 329 331 323 322 330 338 345 348 348 349 348 349 356 358 355 353 354 354 352 351
310 311 312 312 313 313 313 315 315 316 318 316 315 315 315 316 314 314 318 318 316 317 317 315 314 314 315 315 314 314 314 316 317 317 317 316 317 319 319 321 323 323 325 326 323 323 326 325 325 326 326 325 325 325 327 327 323 321 326 327 326 326 323 323 323 320 319 320 326 330 327 323 323 331 341 346 348 349 349 349 354 356 355 354 354 355 353 353
311 312 312 312 313 313 313 313 313 316 317 316 315 315 315 315 314 315 320 318 316 317 316 315 315 314 314 315 314 315 315 316 317 317 317 318 317 318 318 319 321 321 324 325 322 324 326 325 325 325 325 324 324 325 327 327 324 323 328 327 326 326 324 324 323 320 321 320 318 323 328 324 321 330 337 344 348 350 351 349 351 355 356 356 355 354 354 352
312 312 312 313 313 314 314 314 315 317 317 315 315 315 315 315 315 317 319 318 317 316 316 315 314 314 315 315 315 315 316 316 317 317 318 318 317 317 318 319 320 320 321 322 322 325 327 326 326 324 324 324 324 326 326 326 326 326 326 326 326 325 325 325 323 320 319 316 314 319 325 322 321 327 331 336 343 349 351 349 349 354 355 357 355 352 350 351
312 312 313 312 313 314 315 315 316 317 317 315 315 315 316 316 317 320 319 318 317 316 316 315 315 315 316 316 316 316 316 316 317 316 317 317 317 317 318 319 319 320 321 322 321 323 325 326 326 326 325 325 325 325 325 325 326 326 326 326 324 324 324 325 324 322 317 314 315 319 323 323 321 324 329 332 336 343 349 349 348 350 353 357 357 353 352 352
312 312 313 313 313 313 314 316 317 316 316 315 315 315 317 317 317 319 320 318 316 316 316 316 316 315 316 316 316 316 316 316 317 317 316 316 317 318 318 317 318 318 317 318 319 322 323 324 325 326 326 326 325 324 325 326 326 325 325 323 320 320 322 321 321 321 318 314 315 318 322 322 319 323 330 335 336 337 344 348 348 348 354 357 355 354 355 354
312 313 313 313 313 312 313 315 316 316 315 315 315 316 318 319 319 317 318 316 314 315 316 315 315 316 315 315 315 316 316 316 316 316 316 316 317 319 318 316 317 316 314 314 316 317 320 322 323 326 327 326 324 323 323 324 324 325 323 320 317 316 318 318 318 318 317 317 318 319 319 317 318 324 330 333 336 337 341 348 348 351 355 356 353 354 355 355
313 313 313 313 313 314 314 315 316 315 315 315 316 317 318 320 319 317 316 316 314 315 316 316 315 315 315 314 315 316 315 315 316 316 316 316 317 319 319 318 319 318 316 317 316 315 315 319 322 323 325 327 325 322 320 321 323 323 321 318 317 316 317 318 317 318 318 317 319 321 320 316 316 322 329 330 332 335 338 343 347 352 355 354 353 354 355 356
314 314 314 314 316 316 315 316 316 315 315 315 316 318 319 320 319 317 317 317 315 316 316 315 315 315 315 315 315 315 314 315 316 316 316 315 315 317 318 319 320 319 320 318 317 315 314 315 318 320 323 325 326 324 323 323 323 323 323 321 318 317 317 317 318 318 318 318 318 320 319 316 315 321 329 329 329 333 335 339 346 351 352 353 352 353 353 354
314 317 316 316 318 317 316 316 316 315 314 316 317 319 320 320 318 316 316 316 315 316 316 315 315 314 315 315 315 315 314 314 315 315 314 314 314 316 318 320 319 319 319 316 316 317 315 315 320 321 322 324 325 325 326 325 322 323 324 322 319 320 320 318 318 319 318 318 318 318 318 320 322 326 329 329 329 333 335 336 349 351 352 352 352 352 352 351
314 318 319 318 318 317 315 315 315 314 315 316 318 320 320 318 317 316 316 315 315 315 314 314 314 314 313 314 315 315 314 314 315 314 314 314 315 317 320 320 319 318 318 316 316 318 316 317 322 323 322 323 324 325 326 324 322 323 322 319 321 325 323 319 318 319 319 318 319 319 318 321 324 326 328 329 330 332 334 334 345 353 353 352 352 352 351 350
314 318 321 319 317 316 315 314 314 315 316 317 319 321 320 317 316 315 316 315 315 315 314 313 313 313 313 313 315 315 314 313 314 313 313 313 314 316 319 319 318 318 317 316 316 318 316 316 321 323 323 323 325 326 326 325 324 323 320 322 325 325 324 321 319 319 318 318 320 320 319 320 319 321 327 330 329 330 333 332 336 350 353 352 353 351 350 350
315 318 320 319 316 315 315 314 314 315 317 318 320 321 319 316 316 315 315 315 315 314 313 312 313 314 313 313 314 315 314 313 314 314 313 313 314 316 318 318 317 317 317 316 316 316 316 314 318 322 322 323 324 324 323 324 326 323 322 325 325 321 320 321 319 319 318 318 318 319 320 320 319 322 326 328 328 329 331 335 334 341 352 353 352 351 349 348
317 321 321 317 316 315 315 314 315 317 318 319 320 319 317 315 315 315 313 313 314 313 312 313 314 314 314 313 313 314 314 313 313 314 313 314 315 316 317 316 317 317 316 316 315 315 316 314 316 320 322 323 323 323 320 322 325 324 323 325 324 321 320 320 320 319 319 318 318 318 319 320 323 327 330 330 330 331 330 335 335 335 344 348 347 349 349 348
321 323 320 317 316 315 315 316 317 318 319 319 319 318 317 315 314 314 313 312 313 313 312 313 314 313 314 314 313 314 314 313 313 313 313 313 314 315 316 315 315 316 315 315 314 314 315 315 315 318 320 320 320 322 321 321 323 323 322 321 321 322 322 321 320 319 319 319 318 319 318 319 326 332 332 332 332 331 330 333 335 335 337 339 340 347 349 348
321 322 318 316 316 315 316 317 317 319 319 318 317 316 315 314 314 314 314 312 312 313 312 312 312 313 313 313 313 313 313 313 314 313 313 313 313 314 315 314 314 314 314 314 314 314 314 315 314 315 317 317 319 322 323 323 323 324 322 321 321 321 320 319 319 319 318 318 318 320 319 320 328 332 331 333 333 332 332 332 333 334 335 338 338 344 348 348
321 321 317 315 315 315 316 317 317 318 317 316 315 314 313 314 314 314 314 313 313 313 313 312 312 313 313 313 313 313 313 313 313 313 313 313 313 313 314 314 313 313 312 312 313 314 316 316 316 316 316 317 319 321 321 321 323 323 324 324 323 322 320 318 318 319 318 318 318 319 318 322 331 336 333 333 334 332 333 332 332 332 334 336 337 338 344 345
322 319 315 314 315 315 316 317 316 316 315 314 314 313 313 314 314 314 313 313 313 313 313 313 312 312 313 313 312 312 312 312 312 312 313 313 313 313 313 313 313 312 312 313 313 315 316 316 316 316 317 317 318 320 320 321 321 322 323 324 324 323 322 321 323 323 320 318 318 318 317 322 330 336 335 332 332 332 333 332 333 333 333 335 336 337 340 341
321 318 316 315 315 315 316 317 316 315 314 314 314 313 313 313 314 313 313 313 312 313 312 312 312 312 312 313 312 312 312 312 312 312 312 313 313 313 313 313 312 313 313 314 315 314 315 316 317 316 317 317 316 316 318 320 321 320 322 323 323 323 325 323 324 325 322 320 321 319 317 320 329 334 334 332 332 331 332 332 333 333 333 333 335 335 337 340
321 320 318 316 315 315 315 315 316 315 314 313 313 313 313 313 312 312 312 312 312 312 312 312 312 312 312 312 312 312 312 312 312 312 312 312 313 313 313 312 313 313 313 314 315 314 313 315 317 318 317 316 315 315 316 319 321 321 322 323 323 323 324 323 321 321 321 322 323 322 319 322 331 334 332 332 332 331 333 333 332 332 332 332 333 333 336 341
322 319 318 317 316 315 315 314 315 315 314 314 314 313 312 313 312 311 311 312 312 312 312 312 312 312 312 312 312 312 312 312 312 312 312 312 313 313 313 313 313 313 313 313 313 313 312 313 315 317 318 317 317 319 320 320 320 321 322 323 324 324 324 324 321 319 322 322 322 325 326 325 330 334 336 336 332 331 332 332 332 333 331 333 336 335 338 341
320 316 316 317 317 316 315 314 315 314 314 315 314 313 312 311 312 311 311 311 312 311 312 313 312 312 313 313 313 312 312 312 312 312 312 313 313 313 313 313 313 313 313 313 312 311 311 311 312 314 316 317 317 318 318 318 318 319 320 321 322 323 323 323 321 321 325 324 321 328 333 326 327 336 341 340 337 334 334 334 333 332 331 333 337 339 340 341
317 316 315 315 315 315 314 313 315 314 313 314 313 312 312 311 311 311 311 311 312 312 312 313 313 313 312 313 313 312 312 312 312 313 313 313 313 312 312 313 313 313 313 313 313 311 311 311 312 312 313 313 314 315 315 316 317 317 319 319 320 321 321 322 322 322 325 324 322 330 335 329 329 336 339 338 339 339 339 338 339 339 338 337 336 337 340 342
316 316 315 314 315 314 313 313 314 314 313 313 313 312 312 312 311 311 311 311 312 313 313 313 314 314 313 313 313 313 313 313 313 314 313 313 312 312 312 313 313 313 313 312 313 312 311 311 312 311 312 312 313 314 314 314 315 316 317 318 318 320 320 320 322 322 323 324 325 328 330 330 331 334 335 336 338 338 339 340 342 344 344 343 340 341 342 342
315 316 316 316 314 314 314 313 314 313 313 313 313 312 312 312 311 311 311 311 312 313 313 313 313 314 313 313 313 313 314 313 313 313 313 314 313 313 313 313 312 312 312 312 312 312 311 312 312 311 312 312 312 313 313 313 314 314 315 316 316 318 319 319 320 321 323 324 325 326 327 329 331 332 333 335 335 336 338 342 343 344 342 341 342 343 343 343
314 315 316 316 314 314 315 314 314 314 313 313 312 312 311 311 311 311 311 312 311 312 313 312 312 313 312 312 313 313 313 313 313 313 313 313 313 313 312 312 312 312 312 312 313 314 312 311 312 312 312 312 312 312 312 313 313 313 313 315 316 317 318 319 320 322 323 323 325 325 324 327 331 331 332 333 333 337 341 343 343 342 340 340 340 340 342 342
315 314 315 316 314 314 314 314 313 314 313 312 311 312 312 311 311 311 312 313 312 311 311 312 312 311 312 312 313 313 313 313 312 312 312 311 311 312 311 311 312 312 312 312 313 314 313 313 312 312 312 312 312 312 312 312 313 313 313 314 315 316 317 318 319 322 323 324 324 324 324 328 331 330 331 334 337 340 343 343 342 340 339 339 338 339 342 344
Wind_Speed
22 22 22 22 22 22 22 21 20 19 19 18 17 17 16 15 15 15 15 14 13 13 12 11 9 9 10 12 13 11 9 8 7 9 10 7 10 14 14 14 17 16 13 11 12 13 15 16 17 17 16 15 15 15 12 12 10 7 2 3 3 3 4 3 4 6 7 2 8 9 10 11 8 11 12 11 12 13 11 9 11 11 13 20 26 32 35 34
22 22 22 22 22 22 22 21 21 20 19 19 18 17 16 16 15 15 15 15 14 13 13 12 11 11 12 13 13 12 10 7 8 11 9 7 11 14 16 15 15 17 17 15 16 17 17 18 18 18 17 15 14 14 12 13 13 9 3 2 4 4 1 1 2 5 8 6 8 10 9 11 11 14 13 9 9 11 11 10 12 14 17 23 30 32 33 35
22 22 22 22 22 22 21 21 20 20 19 19 19 18 17 17 16 15 15 15 13 13 13 13 12 12 12 13 11 12 11 7 10 11 9 9 11 12 14 15 15 17 19 18 16 17 17 16 17 17 17 14 13 14 12 12 13 11 7 3 4 5 2 0 4 4 7 11 5 9 7 8 11 14 12 7 11 10 8 10 13 16 21 27 32 32 33 33
23 23 22 22 21 22 21 21 20 19 19 19 19 19 18 18 17 16 15 15 14 13 13 13 13 12 12 12 9 11 11 8 7 5 7 7 7 10 13 14 16 18 19 18 16 16 16 15 16 17 15 13 14 14 13 11 10 8 8 6 4 6 3 3 7 5 5 10 6 8 8 8 11 15 15 11 9 5 5 9 14 20 25 30 32 32 33 32
23 23 23 22 22 21 21 21 20 19 19 18 19 19 18 18 17 16 15 15 14 13 12 13 13 12 11 9 8 10 8 4 2 5 7 7 6 9 12 13 15 18 18 18 16 16 17 16 15 16 14 11 13 13 12 14 12 7 9 11 8 5 3 4 8 9 12 13 10 10 9 8 11 11 14 13 7 5 11 12 14 22 28 31 33 32 32 32
23 23 23 23 22 21 21 20 20 19 18 18 18 18 18 18 17 16 15 14 14 13 12 12 12 11 10 8 9 8 5 3 3 4 9 7 7 7 8 12 14 17 19 20 17 17 18 18 16 16 14 11 12 11 12 16 14 8 9 13 11 6 4 6 6 9 12 9 8 8 8 7 8 8 11 10 8 12 17 17 19 23 28 29 31 32 31 31
23 23 23 23 22 21 20 20 19 19 19 19 19 18 18 17 17 16 14 13 13 13 12 11 11 9 9 9 10 6 9 8 1 4 8 6 6 4 5 10 14 17 21 22 18 17 18 19 18 16 13 10 12 13 13 16 15 11 10 10 8 7 6 12 7 7 6 9 9 5 6 4 7 7 9 4 6 17 19 19 22 23 26 28 28 30 31 32
23 23 23 23 22 21 20 20 19 19 19 19 19 19 19 18 16 15 14 13 12 12 11 10 9 8 9 9 8 8 11 7 2 4 9 9 7 2 4 9 14 19 24 24 19 17 18 19 19 16 12 10 12 13 14 14 13 12 12 12 9 14 15 18 8 9 8 12 14 7 5 4 11 9 7 4 5 16 20 19 22 23 25 27 27 28 30 31
23 23 22 22 22 21 21 20 19 19 18 18 18 19 19 18 17 15 13 12 11 10 9 9 9 8 10 7 6 9 5 2 3 5 8 9 7 4 5 8 14 22 25 23 19 17 18 18 19 17 12 12 13 13 14 12 9 12 13 13 11 12 22 22 11 15 13 7 14 14 8 7 16 16 8 5 6 15 22 21 22 23 24 25 26 27 28 29
22 21 21 21 21 21 20 19 19 18 18 17 18 19 19 18 16 14 11 10 10 9 8 9 8 8 8 5 6 6 1 1 3 4 6 6 7 6 6 8 14 22 24 21 19 18 18 17 17 17 15 14 13 12 14 12 10 14 11 10 13 12 16 21 17 18 11 6 14 14 11 15 16 10 4 7 11 18 24 21 21 23 24 24 25 27 28 28
21 20 21 21 21 20 19 18 18 18 17 17 18 18 17 15 14 12 10 9 8 8 8 7 7 7 4 4 10 6 2 4 5 5 6 4 6 6 6 10 15 21 21 19 19 18 18 17 15 14 12 11 13 13 14 14 14 16 13 10 12 13 11 15 15 14 13 8 11 8 8 20 18 7 7 14 15 19 22 18 19 23 23 23 24 26 27 27
21 21 22 22 21 21 18 17 17 17 16 16 18 17 14 12 12 11 11 9 6 6 7 7 6 4 1 7 14 8 6 6 5 4 4 2 5 5 7 11 15 19 19 18 18 17 17 17 16 15 12 10 10 10 9 12 16 16 14 12 12 12 12 15 16 13 14 8 8 7 3 10 12 10 14 19 18 19 19 15 19 22 22 22 24 25 26 27
22 22 22 22 22 21 19 16 16 16 16 16 17 14 11 10 10 11 11 6 5 6 7 6 3 3 2 8 9 6 8 6 5 4 2 3 4 6 8 9 13 17 17 16 15 15 16 17 17 17 17 13 10 8 7 8 12 14 12 11 10 11 11 14 17 16 14 11 12 11 4 4 8 15 20 20 20 21 19 17 18 21 21 21 24 25 25 27
22 21 21 22 21 21 19 16 15 15 15 17 15 12 10 8 8 10 8 4 5 6 5 3 1 2 5 8 4 5 8 3 5 4 3 4 4 7 9 9 11 15 16 16 13 12 15 16 17 17 18 16 14 14 13 9 9 10 10 9 8 8 8 12 15 16 14 13 18 11 5 4 7 16 21 20 21 21 19 17 17 19 20 21 24 24 25 26
23 22 21 20 20 19 18 16 15 14 15 16 12 10 9 6 7 9 6 4 4 4 4 3 2 1 8 10 5 4 8 3 3 3 3 5 6 7 9 11 11 13 15 15 13 11 12 14 16 16 15 16 15 14 11 8 7 8 9 8 8 8 8 12 13 15 14 12 19 13 5 5 8 14 19 20 21 19 18 18 18 18 19 20 23 24 25 26
23 22 21 20 20 19 18 17 15 14 14 14 10 9 10 6 4 8 7 4 2 1 1 1 4 7 9 4 3 2 6 3 2 3 5 6 8 8 8 11 11 12 14 14 12 11 10 13 16 16 15 13 11 10 8 7 7 8 9 8 9 10 9 10 12 15 16 12 15 13 6 3 7 15 21 21 21 20 17 16 18 19 18 20 21 22 24 26
23 22 21 20 20 19 18 17 15 15 14 11 8 8 10 6 4 6 6 2 2 3 4 3 4 9 10 5 5 5 3 5 5 5 6 6 8 8 5 10 11 12 14 12 12 11 11 13 13 12 12 10 8 8 8 8 8 7 9 9 10 12 10 9 10 13 17 13 12 12 9 3 6 14 22 23 22 20 16 15 18 19 17 18 17 19 22 25
23 23 22 21 20 19 18 17 16 14 13 9 7 8 8 7 6 7 5 3 4 5 6 4 4 8 8 7 7 2 3 6 5 4 4 5 8 7 6 10 10 12 13 11 13 14 12 12 11 8 8 9 9 9 9 10 10 9 9 8 10 12 12 11 10 9 16 14 12 12 11 6 9 14 19 22 22 19 17 16 19 19 16 16 15 18 21 23
24 24 22 21 19 18 17 16 15 13 13 8 7 8 7 8 9 6 3 3 6 5 5 4 8 6 4 3 4 3 5 6 4 4 4 5 7 7 8 10 10 13 13 9 12 15 12 9 9 8 8 11 11 12 12 12 13 13 11 10 10 11 12 12 12 9 14 14 12 13 12 8 11 13 13 18 20 18 18 16 17 19 17 19 19 19 21 22
25 24 22 20 17 17 16 15 13 11 12 10 12 12 8 10 7 2 5 7 12 10 9 5 6 9 7 3 4 7 8 7 7 6 5 5 7 9 10 11 12 13 12 8 10 14 12 8 9 10 11 14 15 16 17 15 15 16 14 12 12 11 10 12 13 13 12 12 12 13 13 10 11 12 12 17 18 17 18 15 17 18 18 23 23 20 21 19
25 23 21 18 16 16 14 14 12 9 8 9 14 14 10 11 7 5 12 13 13 11 11 8 7 10 8 5 6 9 8 7 6 2 2 5 8 8 10 12 11 9 11 12 10 12 13 10 11 14 15 16 16 16 17 17 16 16 14 12 12 10 9 12 13 13 13 10 9 10 11 12 12 13 13 16 16 15 18 18 19 18 18 24 24 21 21 18
24 23 20 18 14 14 14 12 9 8 7 6 8 9 9 10 8 8 12 12 13 11 10 8 9 9 6 5 6 5 6 8 6 4 3 5 9 9 10 11 10 8 11 13 10 9 11 11 14 15 15 16 16 16 16 17 16 13 12 10 10 8 10 11 13 14 13 9 8 11 11 12 15 14 14 16 14 14 19 21 21 20 20 24 23 22 22 20
23 22 19 17 13 13 13 9 6 7 8 7 5 7 9 9 9 9 9 11 14 12 11 10 9 8 5 4 3 4 8 9 5 6 4 5 9 9 9 9 10 10 11 12 11 9 8 10 15 16 15 16 17 17 16 14 13 11 10 9 9 10 11 8 9 14 14 8 8 11 11 11 14 15 14 17 18 16 18 20 21 24 28 27 24 25 26 24
22 20 19 17 14 12 9 7 6 6 7 6 5 7 10 10 9 10 10 11 11 9 9 8 7 5 4 4 3 6 8 8 4 4 4 6 9 7 9 9 9 10 11 13 15 14 11 10 13 16 16 17 16 16 16 12 9 11 13 12 10 11 13 11 9 12 12 10 10 10 9 8 13 16 14 16 18 16 17 19 19 24 32 31 26 25 26 26
21 20 19 17 15 11 6 5 7 7 8 6 4 7 11 10 9 8 8 9 8 6 8 6 6 5 5 5 5 6 8 8 8 1 2 6 7 6 7 9 9 9 11 15 16 14 14 13 13 14 16 18 17 14 15 13 8 9 12 14 15 13 13 14 15 13 9 9 12 13 10 6 10 17 16 14 15 16 19 20 20 22 29 33 27 24 25 28
19 19 19 17 17 12 5 4 6 8 9 5 4 9 11 10 9 7 6 6 4 6 8 6 5 5 4 6 6 7 8 5 5 2 2 6 8 8 7 6 8 9 11 12 11 8 11 15 14 13 15 17 17 14 14 14 9 8 9 12 16 17 15 15 16 12 8 7 9 13 10 6 7 11 15 18 18 19 20 18 20 23 26 30 29 27 28 29
19 19 18 17 17 14 8 6 6 8 11 7 7 11 10 11 9 4 4 6 3 6 7 6 4 3 2 2 4 7 4 1 3 5 4 4 5 6 7 7 7 8 10 9 7 6 9 15 15 15 15 13 13 12 13 14 10 7 10 11 12 14 15 16 15 11 8 9 10 13 11 8 7 9 13 19 23 21 18 17 19 23 25 28 29 30 30 30
20 19 18 16 15 12 9 7 5 7 11 11 11 11 10 11 8 2 5 4 2 5 6 5 2 2 2 2 6 9 5 3 5 6 4 3 5 7 7 9 10 10 11 9 8 7 9 14 15 16 14 10 10 11 12 15 12 9 12 13 10 9 11 12 12 10 10 9 10 12 11 8 7 8 11 14 20 19 17 18 19 23 28 29 30 30 29 31
20 21 19 17 13 9 9 9 6 7 12 13 12 11 10 10 7 4 6 3 3 5 3 4 4 3 5 6 7 8 6 6 5 4 3 7 8 8 9 9 11 13 12 11 10 10 9 10 13 15 13 9 11 12 13 14 12 9 12 15 12 8 8 8 8 8 10 10 9 11 11 8 6 7 9 11 15 16 17 19 20 26 32 32 31 30 28 30
20 21 19 17 13 9 9 10 7 7 12 14 13 12 11 9 6 5 5 2 4 5 3 4 4 3 6 8 7 6 5 7 5 2 4 7 8 10 10 10 10 10 10 11 11 12 14 13 11 12 12 12 12 12 14 14 11 9 11 13 12 8 5 6 7 6 8 10 11 14 14 10 8 8 8 8 12 15 17 19 20 25 32 32 31 31 29 30
20 19 18 16 12 7 8 9 7 8 12 14 13 12 11 7 5 6 3 2 3 3 4 3 2 2 5 6 4 5 3 5 4 5 6 6 8 10 8 8 8 7 8 9 10 12 15 15 10 9 13 16 14 11 12 12 10 10 9 9 9 7 6 6 7 6 8 8 9 14 17 15 11 7 8 9 11 15 16 19 21 22 28 31 31 31 30 30
20 18 16 14 10 5 5 8 10 11 11 12 13 11 9 5 6 6 3 3 2 1 2 3 3 1 1 6 5 2 1 3 2 4 7 6 6 7 8 7 4 5 7 7 8 10 12 13 12 11 11 15 14 9 9 10 11 12 10 8 8 7 6 6 7 7 8 8 9 13 15 14 11 9 12 15 11 10 12 19 26 27 29 31 32 32 31 30
18 17 14 9 5 5 5 8 11 12 10 11 12 10 7 5 4 4 3 1 3 3 2 2 2 2 3 5 4 2 1 2 2 2 5 6 7 5 8 6 4 5 5 5 7 8 8 12 15 14 9 12 14 10 7 9 11 11 10 8 8 7 7 7 7 7 8 9 11 14 13 11 9 10 15 19 18 11 12 19 31 36 36 35 35 35 32 32
16 14 10 6 7 9 10 9 10 11 11 11 9 7 6 5 2 3 3 5 6 3 2 2 3 4 6 6 2 3 3 3 0 3 4 4 7 6 6 4 2 6 7 6 7 7 7 8 13 15 10 11 15 13 9 8 10 11 10 9 9 8 7 7 6 7 8 8 11 14 12 8 7 7 12 17 21 17 16 16 31 43 40 38 38 37 35 35
13 10 8 7 9 11 10 9 9 9 10 9 7 6 5 3 2 5 5 6 5 4 4 3 6 7 7 6 2 2 2 2 1 2 5 5 6 4 2 2 6 5 7 6 5 6 10 9 7 14 17 16 15 15 13 11 10 9 10 9 9 8 7 7 8 9 8 8 9 10 8 7 6 6 8 13 17 19 19 14 25 42 40 38 39 37 35 34
10 6 6 7 7 8 7 7 8 7 7 8 6 5 1 3 6 6 6 7 6 6 8 7 7 7 5 4 5 5 2 2 2 2 4 7 8 3 6 8 8 7 6 5 5 6 7 9 10 8 14 18 17 15 15 14 9 6 10 10 10 10 10 8 9 12 11 9 7 6 8 8 7 7 10 13 14 16 17 14 15 32 39 37 35 35 34 32
7 3 4 5 5 8 7 5 5 4 6 7 5 4 1 5 8 7 7 8 6 5 8 7 1 3 5 2 5 8 6 2 4 3 4 5 6 3 7 8 6 7 8 8 5 6 7 9 14 15 12 15 20 19 16 16 14 8 7 9 10 11 11 8 7 8 10 9 6 7 10 8 8 7 9 13 15 16 16 15 14 21 34 34 32 36 36 34
7 4 2 2 5 9 7 3 3 4 7 7 5 7 4 6 9 9 9 9 7 5 7 5 2 3 6 5 1 6 4 2 1 1 5 4 1 6 6 6 6 7 8 9 5 5 9 9 11 14 14 10 13 17 14 17 20 15 11 8 7 9 10 8 7 7 8 9 6 9 11 9 7 6 8 13 16 15 15 17 17 14 26 31 33 38 39 36
7 7 3 0 6 8 4 3 5 7 7 4 3 3 2 7 10 11 11 9 7 5 5 5 4 2 2 6 7 6 4 4 5 4 4 3 1 6 8 5 4 7 9 10 7 6 7 7 8 11 14 12 7 9 9 12 16 14 14 13 9 8 8 8 8 7 7 7 7 9 9 8 7 6 8 12 14 13 12 13 16 15 20 26 28 35 37 35
8 9 2 3 8 6 3 5 7 8 6 3 3 4 5 6 9 11 11 9 7 5 4 6 7 4 3 6 8 6 3 1 4 6 5 6 3 4 9 8 6 8 11 9 7 7 6 6 8 11 13 11 6 6 8 10 10 10 10 12 11 7 7 8 9 9 8 7 6 7 7 6 5 7 7 7 11 13 13 12 13 15 20 24 24 32 38 34
9 7 3 6 5 2 4 9 7 5 3 2 0 6 7 6 7 9 8 7 6 4 5 6 7 6 5 6 6 6 6 5 3 4 7 6 4 2 8 11 8 8 9 8 6 5 5 6 8 10 10 8 7 7 9 11 10 10 10 10 11 9 8 9 9 10 9 8 7 6 7 6 3 5 8 8 9 13 16 14 13 15 22 25 23 28 38 38
10 3 7 8 0 2 9 8 2 2 4 4 5 8 5 4 7 7 7 7 5 3 4 4 5 6 5 6 7 8 9 8 5 4 8 5 7 8 7 10 10 7 6 6 7 6 6 4 7 10 9 10 13 14 15 15 15 15 13 10 11 11 10 9 7 8 9 9 10 8 8 7 3 6 6 8 9 10 14 16 15 16 20 24 24 26 33 37
8 3 8 6 2 7 11 4 2 3 4 4 6 8 5 4 7 8 7 8 5 3 4 4 6 6 5 7 8 9 8 8 7 6 10 8 7 10 9 10 9 8 6 4 4 7 7 4 7 9 10 12 17 19 19 16 14 13 11 10 10 11 13 12 8 8 8 9 11 8 7 9 5 8 7 2 3 6 9 15 16 17 18 20 23 26 30 34
12 4 5 5 6 9 8 3 2 2 3 2 2 5 5 5 8 8 7 8 7 6 6 5 6 6 5 6 7 9 9 6 6 7 9 9 5 9 12 11 8 7 5 6 6 7 5 5 6 7 8 8 11 13 12 12 10 8 9 11 13 16 18 16 10 7 9 10 11 9 8 8 5 5 6 2 4 7 8 10 14 16 18 19 20 22 26 32
14 5 3 6 8 8 7 8 7 4 3 2 2 3 4 6 8 7 7 8 8 7 6 4 7 7 6 7 6 7 8 6 7 8 7 9 9 9 13 13 8 6 4 9 10 8 5 6 6 7 8 7 7 6 5 6 6 7 10 13 15 18 19 16 9 7 8 10 11 9 6 7 6 4 4 4 6 5 5 5 10 13 16 19 19 18 20 28
10 4 3 6 7 9 11 11 11 7 3 2 2 3 2 4 9 8 7 7 6 6 7 5 8 7 4 6 6 5 7 6 6 7 7 8 8 8 14 16 12 10 9 8 8 7 5 7 9 10 11 10 8 8 9 10 9 8 12 15 14 15 15 11 7 8 9 9 11 9 5 7 8 3 4 7 7 4 5 5 3 5 9 9 9 1 10 28
7 4 7 6 4 7 10 9 9 8 7 6 3 3 4 4 5 6 3 4 6 5 7 5 5 6 4 5 7 5 6 6 5 7 7 8 8 9 13 16 14 13 12 9 8 6 5 7 12 14 15 15 16 16 15 14 13 13 15 17 17 16 17 14 9 9 9 6 9 9 5 8 10 3 12 12 6 1 3 9 7 1 4 3 7 11 4 23
6 5 6 6 5 5 7 7 8 7 8 8 4 3 5 5 5 3 3 3 3 3 5 3 3 5 5 6 6 5 7 7 5 5 6 8 9 8 9 13 14 12 11 10 8 6 5 7 12 15 16 18 19 19 17 15 14 14 15 18 19 18 16 14 12 15 13 7 10 11 6 10 12 3 9 13 12 9 11 15 17 13 10 10 9 12 10 9
9 6 7 7 4 5 5 5 8 8 9 7 4 4 5 4 4 4 2 2 3 3 4 4 4 5 5 7 7 6 6 7 6 6 4 5 7 7 6 8 11 10 10 11 10 7 7 8 12 14 15 17 18 18 18 16 14 15 16 18 19 18 18 15 14 18 17 13 16 17 12 11 12 6 4 8 11 13 15 19 23 24 23 21 17 17 16 9
10 7 7 7 6 7 6 5 6 4 5 4 3 4 5 4 4 4 1 3 5 4 3 5 7 7 7 7 6 6 6 7 8 8 5 4 4 6 6 5 6 8 11 10 8 7 7 8 11 12 12 14 16 17 17 16 16 17 17 17 18 19 18 16 15 16 16 15 17 19 15 11 10 9 4 4 8 11 14 18 21 21 23 24 21 19 17 14
9 6 7 7 4 4 6 4 5 4 2 5 4 4 4 4 4 5 4 5 7 4 3 6 7 7 8 9 7 7 8 9 10 11 10 8 9 10 8 6 5 6 8 8 6 6 6 7 9 10 9 11 13 15 16 16 17 19 18 18 18 18 16 14 14 14 13 13 15 16 14 10 6 10 11 8 7 10 14 17 16 16 19 20 19 17 14 11
7 6 6 7 2 1 5 3 4 4 3 5 3 2 3 4 5 6 4 5 5 3 3 6 7 6 6 8 8 9 11 12 13 15 15 16 17 17 15 14 14 11 8 7 6 5 5 6 7 7 8 10 13 15 15 12 13 14 14 15 17 17 17 16 15 16 15 14 12 11 10 7 5 10 11 6 7 10 11 11 12 15 17 18 17 16 14 12
Wind_Direction
359 357 356 354 351 347 344 342 342 341 341 341 340 338 336 334 331 325 325 329 330 329 328 325 321 318 323 332 333 335 323 290 270 248 238 211 206 216 216 217 221 216 214 202 174 187 197 196 203 201 207 213 224 232 229 229 204 168 176 252 268 280 287 359 353 323 327 224 168 181 169 146 139 129 133 127 119 134 144 154 147 141 147 143 142 145 147 151
357 356 354 353 351 348 344 341 341 340 339 340 339 337 333 330 330 328 327 327 328 325 323 320 316 313 318 324 325 327 321 296 265 256 248 213 216 226 222 219 216 210 208 191 177 194 195 194 199 198 207 214 223 224 226 224 208 211 231 249 263 274 315 75 288 301 302 271 172 175 171 149 154 148 148 144 133 148 153 152 144 138 139 138 144 148 149 153
355 354 353 351 350 348 345 342 341 340 339 338 338 336 332 329 328 330 328 326 326 321 319 317 315 316 318 323 323 324 327 304 273 268 255 236 231 232 227 220 213 206 204 190 184 200 198 196 196 199 209 218 225 217 223 222 207 221 223 235 235 222 296 117 227 255 277 278 203 168 178 161 165 150 141 158 152 154 159 153 150 146 145 144 148 152 152 155
353 353 352 351 350 347 345 343 342 341 340 339 337 334 332 330 328 328 327 324 323 320 319 314 314 317 319 322 320 330 332 301 271 228 227 257 260 241 226 217 212 205 202 188 187 208 208 203 198 204 215 222 228 219 226 225 201 209 214 251 236 192 266 180 202 223 219 251 221 178 192 174 175 159 140 150 148 148 187 166 156 152 151 150 151 155 156 157
350 350 351 351 350 348 345 344 343 343 342 340 337 335 334 332 328 325 323 322 321 321 319 312 313 315 319 319 317 335 330 304 129 170 240 285 295 260 228 215 210 203 199 185 192 221 217 210 203 207 220 230 231 222 226 226 217 218 215 238 243 207 248 224 220 214 188 208 217 190 195 181 176 163 132 142 143 167 196 176 156 152 151 154 154 156 159 160
347 347 348 350 350 348 346 344 343 342 343 341 337 335 333 331 327 322 321 321 318 318 316 310 312 313 315 311 314 332 301 306 85 219 273 293 291 281 226 211 207 199 193 187 204 229 219 211 208 207 219 232 237 233 226 223 225 240 237 235 228 200 229 259 252 222 189 189 223 198 198 198 159 130 113 142 140 142 179 170 151 153 152 154 156 158 163 163
345 345 345 348 349 348 347 343 342 342 344 341 337 335 330 328 324 323 322 319 315 314 312 309 310 310 308 304 312 313 259 269 340 267 289 295 290 296 214 203 200 194 189 192 212 227 216 211 210 211 218 228 237 243 241 233 228 234 259 255 201 156 223 245 234 231 200 163 202 228 212 192 103 97 100 136 150 138 162 164 149 152 153 155 159 163 166 165
344 344 344 345 346 348 346 343 341 341 344 342 339 336 329 325 323 324 321 316 313 310 311 310 310 305 300 306 310 288 252 248 13 324 308 302 290 265 210 203 193 191 189 194 211 221 215 213 213 215 219 229 236 240 246 246 239 229 252 263 188 154 203 229 217 225 221 166 181 202 205 130 111 146 136 130 171 145 154 158 150 150 154 159 163 168 169 167
344 343 343 343 344 346 345 343 340 341 345 342 340 337 330 326 324 324 320 317 315 311 315 308 303 298 295 306 298 279 245 150 18 321 317 310 282 240 221 216 194 187 190 197 212 220 216 216 217 220 226 239 243 243 247 246 246 233 236 253 233 186 194 200 198 220 229 168 170 179 175 128 134 157 159 148 159 148 148 149 154 154 156 164 166 170 172 169
344 343 341 341 342 344 344 342 341 342 344 343 341 337 331 326 325 326 325 324 320 317 315 300 298 293 293 307 280 270 189 91 333 316 313 292 253 247 222 215 197 186 192 201 214 222 220 219 219 225 237 252 257 256 255 248 256 257 249 248 250 246 209 196 197 199 206 204 197 192 156 144 155 163 157 150 147 151 146 147 163 161 160 167 167 170 174 174
345 343 341 341 341 343 345 342 341 342 344 345 342 338 333 328 327 328 331 332 326 324 313 300 297 283 281 279 264 273 340 300 303 316 314 277 235 251 202 198 198 189 194 204 214 223 223 224 226 231 237 249 262 265 264 260 265 271 277 275 254 261 250 233 228 181 169 205 208 213 149 150 165 173 151 145 144 153 145 148 165 158 159 168 167 170 175 177
345 344 341 341 341 343 345 342 341 343 345 345 342 341 336 332 332 331 334 336 339 336 314 304 293 266 261 268 259 270 333 315 294 289 301 271 226 219 186 194 199 193 197 206 214 224 226 229 232 239 238 240 252 259 277 272 265 263 261 272 267 261 253 243 247 207 185 193 188 212 203 157 160 147 150 150 149 157 153 158 163 156 161 168 169 172 176 180
343 343 341 340 340 342 344 344 342 342 346 345 344 346 340 340 341 336 336 345 7 347 324 313 266 202 281 277 252 267 304 303 290 278 242 238 217 195 193 199 201 199 205 214 220 224 227 231 235 242 248 254 259 260 292 283 261 258 247 253 263 263 254 233 233 222 202 183 187 210 218 176 156 146 154 155 152 159 165 167 164 163 168 170 172 174 178 183
340 341 340 338 338 340 341 342 341 341 345 344 344 349 347 349 351 345 341 359 16 356 360 11 197 175 272 272 248 303 318 292 256 262 210 223 213 203 206 206 208 207 214 225 230 230 228 233 240 248 252 257 268 273 280 272 252 256 246 241 244 249 257 241 224 211 205 184 181 200 219 181 152 148 154 157 154 156 163 163 163 172 174 172 174 175 180 185
337 338 337 336 336 338 337 338 341 340 344 344 344 355 354 351 2 2 352 352 4 6 46 47 25 341 271 256 231 327 12 64 225 229 221 238 223 215 211 211 216 213 218 227 234 239 231 231 236 244 250 251 262 270 273 270 253 248 242 235 232 237 249 251 235 207 202 187 176 188 227 187 164 156 151 158 157 153 162 162 165 177 176 175 176 175 181 185
334 335 335 335 334 336 336 336 340 342 347 346 347 360 356 338 347 5 360 351 356 8 85 33 353 324 287 265 198 280 11 20 279 258 248 250 231 226 213 210 216 216 218 222 231 244 237 231 232 236 245 247 248 250 257 263 249 231 233 237 228 230 235 243 248 215 193 178 179 195 225 174 160 155 148 158 160 155 166 165 167 177 176 178 179 177 181 184
332 333 334 334 332 335 336 335 340 346 351 352 354 358 353 335 307 346 3 348 296 276 273 282 313 290 265 271 264 251 335 335 319 290 249 242 233 236 213 204 211 210 211 217 225 236 233 226 228 232 239 242 240 236 239 243 240 223 220 238 240 239 240 233 247 218 183 178 189 202 217 172 140 154 153 163 166 161 168 171 175 177 175 179 181 181 183 182
332 331 333 333 331 332 334 336 338 349 358 0 355 344 348 354 318 321 346 318 301 292 284 249 240 270 250 262 286 274 345 327 318 287 235 230 230 235 220 204 204 198 202 215 217 221 224 216 219 228 226 229 234 227 226 227 236 236 216 223 235 241 248 242 250 211 172 182 197 195 213 193 146 154 156 165 171 168 172 180 180 175 176 181 179 184 188 186
331 331 333 332 330 329 333 337 336 354 8 12 9 348 344 345 313 302 354 298 262 273 300 213 211 280 300 278 314 318 306 303 290 263 232 228 219 222 222 204 199 197 201 208 201 205 212 208 215 227 220 218 221 222 231 236 243 256 247 236 232 231 241 240 252 233 176 181 202 197 206 190 152 158 162 170 175 172 174 181 181 175 177 184 182 186 194 194
330 331 332 332 331 326 330 336 337 0 16 27 26 8 352 341 312 286 3 285 247 264 297 264 241 291 304 287 316 312 289 260 261 267 235 220 212 214 212 200 199 202 210 211 191 196 208 214 216 221 223 221 221 224 237 248 253 266 268 259 248 239 239 231 238 244 204 184 201 201 194 183 168 169 175 178 176 176 177 177 183 178 174 186 190 189 194 198
331 331 333 335 331 324 329 335 343 10 19 25 19 5 0 358 341 339 341 303 260 263 267 268 281 285 292 300 307 314 297 249 241 268 216 207 207 208 194 195 206 201 211 220 206 196 207 228 224 221 228 229 230 228 234 249 253 262 269 272 268 257 253 241 232 237 226 205 201 193 180 182 181 172 177 181 180 185 181 176 183 178 171 185 192 194 196 196
333 334 338 338 333 328 330 334 356 26 17 358 360 359 2 357 337 323 325 301 285 274 245 255 272 261 272 291 282 289 285 263 229 188 207 210 211 210 181 191 219 210 206 217 218 203 206 231 232 226 228 230 240 239 233 241 248 257 261 264 268 267 269 254 236 235 233 219 199 184 175 187 189 180 181 183 190 200 188 181 183 174 171 181 186 196 199 192
334 339 342 341 338 333 334 352 17 27 28 11 353 5 358 341 328 319 307 289 288 268 232 236 246 240 251 266 254 244 262 273 234 160 157 220 227 227 200 201 225 222 213 210 216 219 214 225 229 231 233 228 234 242 241 238 239 247 251 255 254 255 269 261 233 237 235 231 220 195 187 195 188 181 184 183 191 207 197 189 187 180 180 182 184 193 195 189
338 343 345 342 342 339 347 25 17 351 0 350 348 12 353 335 328 323 303 280 278 255 222 220 227 229 254 260 245 248 264 279 266 120 127 229 242 243 230 229 232 228 226 219 220 230 234 227 220 225 232 235 232 232 241 243 236 235 238 250 254 247 258 266 265 259 241 238 250 228 206 200 184 181 187 182 185 200 200 193 187 184 186 185 186 195 196 191
341 344 344 341 342 345 352 17 4 339 319 305 337 359 346 339 328 323 307 276 259 217 188 185 206 216 243 248 232 251 276 269 255 209 141 241 269 282 258 245 240 238 232 227 228 235 240 235 225 220 222 231 237 231 230 237 245 240 231 238 254 263 265 268 276 279 259 229 232 236 230 218 192 186 183 175 180 194 196 192 183 180 184 185 190 196 195 194
341 343 342 339 339 341 337 323 327 327 321 315 345 339 339 339 317 311 308 271 229 166 165 174 194 196 221 225 213 251 271 236 211 204 238 257 273 284 281 249 230 243 247 239 236 238 240 239 235 230 224 223 231 235 231 233 241 246 239 229 237 254 264 269 274 274 274 261 234 235 237 231 220 205 189 174 178 190 190 188 179 176 183 186 192 194 190 196
338 340 339 339 339 340 340 313 291 314 333 347 346 334 334 330 319 310 274 257 201 154 155 155 154 127 132 193 220 254 291 80 189 215 226 259 263 260 268 254 236 244 255 253 245 233 227 235 237 234 233 229 227 227 225 232 238 240 252 248 232 238 246 256 267 265 269 283 270 256 248 231 225 231 213 181 172 180 182 183 178 175 184 187 189 192 189 194
335 337 337 339 340 342 343 326 295 310 333 344 335 327 329 326 325 294 263 275 135 154 144 122 122 155 196 263 251 254 303 321 233 190 179 259 256 239 246 255 264 264 255 249 249 241 222 225 234 235 234 235 235 233 223 226 238 240 250 264 260 250 247 244 250 255 258 265 265 259 253 243 227 225 224 187 170 171 174 186 187 178 181 184 187 191 190 189
334 335 335 335 337 346 344 334 324 311 322 329 320 318 323 316 306 259 259 283 147 156 125 124 148 185 222 242 233 241 278 263 224 135 176 244 232 233 259 270 282 283 271 265 263 260 247 225 225 235 237 230 231 239 233 226 234 238 245 263 267 263 272 266 249 243 248 252 251 252 251 251 249 233 220 191 178 178 174 185 191 182 181 183 185 189 191 189
333 332 332 329 332 341 319 310 326 321 314 315 315 318 310 292 278 244 238 233 145 137 126 143 128 144 223 238 205 199 262 252 245 261 237 240 212 218 261 273 279 289 282 273 268 268 273 265 240 231 238 241 232 232 240 237 236 238 239 251 259 258 262 276 273 253 242 243 239 244 250 249 256 252 232 209 200 195 179 179 188 183 180 180 180 184 188 189
330 328 326 321 322 319 280 282 323 325 302 305 317 316 296 267 249 256 237 125 122 147 158 141 83 179 228 272 226 176 239 236 239 262 243 234 211 205 239 246 235 255 264 262 261 263 269 272 263 234 230 243 243 230 240 244 233 234 239 240 245 242 230 240 259 255 245 243 233 234 242 246 249 247 254 256 221 196 176 170 180 181 177 177 178 183 187 188
326 323 320 315 312 309 282 289 317 317 300 307 317 306 287 246 219 246 229 169 179 155 121 97 65 92 6 304 264 181 283 224 185 262 260 252 236 213 220 221 209 237 244 242 241 241 249 253 256 250 230 233 243 229 222 234 228 224 230 232 234 228 220 223 227 234 241 240 234 229 231 239 246 242 252 267 252 201 178 176 177 174 172 174 178 183 188 188
326 324 325 324 331 357 343 310 312 319 316 315 305 285 273 255 230 252 257 184 78 48 41 72 55 9 349 299 285 74 305 239 161 265 278 278 277 250 212 222 309 291 262 278 264 236 229 230 233 245 236 217 232 234 210 217 221 219 218 217 223 224 221 224 220 231 246 241 228 226 230 235 242 237 232 249 261 239 207 194 176 167 168 172 178 182 185 187
326 330 342 8 15 10 359 331 315 315 313 306 291 267 249 249 279 342 358 54 54 39 60 52 331 292 266 267 7 53 257 251 78 289 291 267 260 263 236 222 321 296 278 299 296 264 253 236 213 219 223 205 218 234 236 228 222 217 217 219 225 225 230 235 223 221 240 249 227 214 222 232 232 229 210 227 250 248 243 217 165 160 168 171 175 181 182 186
329 342 355 0 359 355 348 328 305 300 300 292 273 258 249 256 356 13 12 32 26 358 24 0 287 275 253 231 149 99 267 272 87 264 271 258 243 255 293 59 52 353 294 283 304 294 279 274 230 209 212 208 208 218 229 242 241 215 205 219 228 225 236 250 256 257 257 260 242 213 215 223 225 241 213 214 232 234 248 241 159 157 168 169 171 181 183 185
330 339 328 314 333 339 330 305 290 288 284 274 259 249 241 35 22 18 0 352 358 359 341 306 264 255 245 201 169 147 138 265 257 240 262 259 250 236 78 59 30 11 342 317 310 316 293 285 304 279 228 215 207 206 213 225 242 224 203 215 226 231 241 249 258 272 275 269 258 239 227 213 208 233 222 212 220 219 229 241 178 161 166 169 171 178 181 183
343 347 312 294 328 337 325 298 286 280 261 260 273 280 307 49 26 16 4 340 340 351 320 305 299 295 287 252 161 129 110 256 243 239 268 243 243 279 88 83 30 17 11 347 309 320 331 298 302 307 275 228 206 200 207 221 235 248 222 202 206 226 240 252 258 259 259 258 255 253 249 225 201 209 209 208 216 214 207 222 221 168 157 166 173 174 180 184
1 358 308 276 340 335 323 287 262 266 257 257 273 280 302 43 34 14 3 345 335 341 316 303 37 20 304 297 26 82 62 314 124 91 277 237 164 2 31 84 65 44 16 351 320 316 330 307 289 293 295 278 223 205 206 214 223 242 259 240 218 226 224 226 247 247 245 251 247 250 255 247 226 197 188 202 212 217 203 203 221 186 155 170 178 175 181 183
351 321 275 124 347 334 318 270 257 263 262 271 294 294 6 52 44 20 3 360 350 331 317 323 4 45 292 312 334 4 9 341 356 353 303 278 57 35 21 9 17 27 15 355 328 315 318 303 289 288 301 312 280 227 215 207 206 224 258 267 261 259 242 220 223 236 246 253 248 246 245 244 255 239 199 192 194 210 213 200 215 207 178 185 184 172 176 182
318 295 239 30 335 322 302 282 268 261 256 264 323 19 47 55 50 33 16 9 354 338 347 347 341 336 339 335 325 333 352 257 301 308 299 307 306 87 56 23 345 344 354 345 315 304 298 283 280 286 298 304 279 230 228 228 215 205 227 251 249 247 264 251 224 217 232 248 249 251 248 228 228 252 241 191 174 196 212 213 220 212 198 201 191 169 172 186
302 283 34 14 324 271 285 285 273 265 263 236 11 43 37 14 16 30 35 17 350 8 18 336 319 321 331 328 313 325 316 261 242 276 268 285 316 33 44 30 5 343 347 330 298 299 293 278 277 277 284 286 259 239 246 256 262 242 220 231 238 229 243 252 231 213 216 235 243 248 264 253 209 252 248 206 194 201 198 207 226 217 206 207 199 176 174 186
284 268 19 10 26 266 293 285 284 348 8 32 60 54 32 338 355 16 33 17 358 32 18 327 335 339 338 346 334 334 330 309 307 298 281 309 40 39 24 26 10 343 339 303 287 336 348 297 281 275 270 277 276 279 289 298 300 280 247 235 243 232 227 235 236 226 213 219 234 239 257 265 301 319 271 200 207 212 185 190 214 218 213 211 206 191 184 188
306 72 47 23 355 307 296 276 92 35 22 34 52 47 27 8 19 17 24 20 7 11 339 341 29 10 346 3 343 327 338 329 313 305 296 308 43 42 14 21 12 331 328 307 291 1 1 269 260 274 272 280 283 287 293 291 292 285 265 260 264 251 242 237 240 254 242 223 222 222 241 253 288 338 337 120 194 252 201 184 200 212 214 215 212 202 193 191
326 0 69 35 346 318 302 311 55 78 64 41 71 74 71 52 27 12 19 24 16 6 345 348 27 19 346 355 343 326 336 337 302 294 296 299 348 11 350 1 8 321 335 13 354 1 351 265 259 268 264 264 262 267 272 265 268 276 262 257 262 266 259 242 231 253 260 251 244 229 224 235 253 322 336 74 177 248 238 191 192 207 207 208 219 221 204 187
314 290 125 58 20 8 11 5 7 39 74 48 45 75 105 82 53 32 11 20 24 355 338 3 11 3 348 345 345 328 320 316 298 292 302 308 311 333 336 339 338 306 344 17 355 338 307 283 288 268 252 243 235 243 269 280 291 290 272 261 256 261 261 247 234 246 252 259 267 261 232 228 238 257 279 254 214 231 271 216 187 205 213 195 196 229 222 182
312 322 32 35 35 38 35 19 10 16 34 66 46 19 42 75 73 60 3 10 42 341 326 26 12 352 356 337 326 313 296 284 281 285 291 298 301 326 331 321 308 301 314 333 324 310 288 280 281 273 267 268 279 305 318 316 316 304 292 289 280 281 290 287 258 244 249 251 252 255 263 270 272 288 337 295 250 227 303 300 177 196 239 202 152 241 222 177
311 3 15 5 13 33 36 28 21 24 25 26 24 8 19 24 46 67 30 23 56 0 344 31 5 335 353 332 311 308 311 294 276 289 300 307 310 314 312 305 295 294 301 294 274 272 278 265 262 265 268 273 282 292 298 301 299 292 290 292 292 300 312 315 297 285 302 300 259 247 238 257 267 359 31 356 313 207 326 326 342 4 255 284 47 42 116 168
356 35 31 357 330 8 30 14 10 42 44 24 15 358 10 17 10 45 95 58 47 27 9 15 344 326 333 334 322 316 325 315 302 331 339 329 325 317 310 303 289 282 287 278 258 250 259 263 264 265 265 269 276 281 283 282 280 279 280 282 285 287 289 294 300 304 309 300 276 278 276 267 259 193 59 11 353 19 20 358 357 13 25 23 46 67 74 141
14 32 30 8 7 45 47 360 355 41 57 25 20 27 5 10 22 23 61 335 329 29 23 327 322 345 335 334 330 317 328 325 316 340 340 304 312 312 300 291 285 290 294 275 256 252 254 254 257 262 268 272 274 277 280 280 278 275 273 275 279 279 277 281 292 296 293 282 278 280 284 290 278 237 103 26 6 10 12 10 15 22 19 15 31 57 54 51
17 22 7 5 57 48 28 28 5 27 80 38 4 35 7 349 15 13 324 308 332 19 21 314 322 345 334 321 311 303 322 318 303 310 290 242 267 280 271 271 290 312 305 280 258 254 257 260 261 263 270 269 267 269 271 272 272 270 267 269 273 274 275 277 279 281 283 284 280 270 258 264 283 285 294 351 350 353 9 18 21 21 11 4 13 32 39 41
30 31 346 340 49 13 337 40 25 323 59 49 8 20 16 343 355 351 318 336 356 12 3 324 326 334 319 310 306 306 316 309 295 297 292 279 281 281 278 275 272 285 286 276 269 251 241 262 275 270 265 263 261 260 258 260 263 263 260 260 262 266 269 267 266 269 271 276 279 268 247 237 278 296 279 272 314 355 23 23 11 3 359 355 359 9 17 25
36 47 358 334 27 18 317 25 43 344 25 57 28 2 347 320 342 353 326 331 351 355 328 320 320 323 313 309 313 316 317 309 299 298 296 290 286 283 281 278 272 271 268 260 262 265 257 259 261 258 261 267 266 260 256 258 259 257 256 252 250 256 264 264 263 265 265 267 272 267 251 245 292 301 289 298 360 23 33 17 353 344 341 337 343 355 6 14